Location: Poughquag
(41.6090°N, 73.6820°W)
Time: 14:56:06
(UTC-04:00)

Vanguard 2 - Pass Details

Date: 01 June 2020
Orbit: 552 x 2938 km, 32.9° (Epoch: 06 July)

Event Time Altitude Azimuth Distance (km) Brightness Sun altitude
Rises 00:25:21 0° 268° (W) 4,183 11.4 -26.0°
Reaches altitude 10° 00:29:31 10° 253° (WSW) 2,780 10.3 -26.1°
Enters shadow 00:30:10 12° 249° (WSW) 2,580 10.1 -26.1°
Maximum altitude 00:33:48 19° 210° (SSW) 1,826 - -26.1°
Drops below altitude 10° 00:37:09 10° 165° (SSE) 2,097 - -26.2°
Sets 00:39:46 0° 145° (SE) 2,842 - -26.2°
